Wind_Speed
12 12 11 13 12 12 11 10 9 9 8 8 8 9 9 10 10 11 11 11 10 10 9 8 8 8 8 8 8 8 8 9 9 8 8 7 7 6 6 6 6 6 7
11 14 13 13 12 11 11 10 9 8 8 8 8 9 9 9 10 9 9 9 8 7 7 7 7 8 8 9 9 9 9 8 7 7 7 7 7 7 7 7 7 8 8
14 15 15 14 14 11 10 9 9 8 8 8 8 8 8 8 8 8 8 7 6 6 6 7 8 8 9 9 9 9 8 7 7 7 7 6 5 7 7 8 7 7 8
14 16 16 14 15 12 10 9 8 7 7 7 7 7 7 6 6 6 6 6 5 6 7 8 9 9 9 8 8 8 7 7 7 7 8 9 9 8 8 8 9 8 7
13 17 17 15 14 12 10 9 8 7 6 6 6 6 6 5 5 5 5 5 5 6 7 9 10 10 9 8 7 7 7 7 7 7 7 8 9 8 9 9 9 9 10
11 16 18 16 14 12 10 9 8 7 5 5 5 5 5 4 3 4 4 4 4 6 7 9 10 9 9 8 7 6 7 8 8 8 9 9 9 8 9 10 10 10 10
5 17 20 18 15 12 10 9 9 7 6 5 4 4 4 4 3 3 3 4 4 5 7 9 9 8 9 9 6 6 6 7 10 10 8 8 9 10 10 10 10 10 10
9 17 21 20 17 14 11 10 10 9 7 5 4 4 4 3 3 3 3 3 3 5 7 8 8 8 9 8 7 6 7 10 10 10 9 8 7 7 9 10 11 11 11
13 16 21 19 18 16 13 12 11 10 8 6 4 4 4 2 3 2 3 3 3 4 6 6 7 7 8 8 7 8 8 10 11 11 11 9 9 9 9 11 12 12 11
17 17 20 19 19 16 14 13 12 10 9 7 5 4 4 2 3 3 3 2 3 4 5 6 7 7 7 8 7 7 8 9 9 10 11 10 9 9 10 11 12 13 13
21 19 20 21 20 17 15 14 13 11 9 8 6 4 3 2 2 2 3 2 3 4 5 5 6 7 7 8 7 8 8 8 9 10 10 10 10 10 11 11 12 12 13
25 22 21 23 22 19 17 16 14 12 10 9 7 5 3 2 2 2 3 2 2 3 3 4 5 6 8 8 8 9 10 11 11 11 11 12 11 11 11 11 12 12 12
27 23 22 24 22 20 19 18 16 13 11 10 7 6 5 2 1 1 2 2 2 3 4 4 5 5 7 9 10 11 12 12 13 13 12 13 13 13 13 12 13 13 13
26 25 24 25 23 22 20 20 17 14 12 11 8 7 5 4 1 1 1 2 2 2 3 4 6 7 8 10 11 13 14 14 14 14 14 14 14 15 15 14 14 15 15
26 27 27 26 26 23 23 20 18 15 13 12 9 7 6 4 3 2 3 3 3 4 4 5 6 7 8 10 12 12 13 15 14 15 15 15 15 15 16 16 16 17 17
32 30 29 28 27 25 23 21 19 18 16 13 11 9 8 5 3 3 4 4 5 5 6 6 7 8 9 10 11 13 13 14 15 14 16 16 17 17 17 18 18 18 18
34 31 32 29 27 26 24 22 19 17 16 15 13 12 9 7 3 4 5 5 6 6 7 8 9 10 11 12 13 14 14 14 15 16 15 16 18 18 18 18 19 19 19
34 30 38 25 28 27 25 22 20 19 17 16 15 13 11 9 6 5 6 6 7 8 9 10 11 12 13 14 14 15 16 16 16 16 18 18 17 19 20 20 20 20 20
31 35 35 26 22 24 26 24 22 20 19 17 16 15 12 10 8 7 7 8 8 10 11 12 13 14 15 16 17 17 17 17 17 18 19 20 21 21 21 21 21 22 21
30 37 28 33 32 28 26 26 23 22 21 18 18 17 14 12 10 9 9 10 11 11 13 14 16 16 17 18 18 19 19 19 19 20 20 21 22 23 22 22 21 21 21
32 35 28 31 27 29 27 27 24 24 23 22 20 17 15 14 12 12 11 12 13 14 15 16 18 19 19 20 21 20 20 21 21 21 23 24 24 25 25 24 23 21 21
35 37 38 32 32 29 33 29 29 29 26 23 21 19 18 15 14 14 12 14 15 17 18 19 19 21 21 22 23 23 23 23 22 21 23 25 26 25 24 23 23 24 24
36 31 37 33 30 29 28 28 32 28 26 24 22 21 19 17 15 14 14 16 17 19 21 22 22 23 23 24 25 25 24 25 25 25 25 27 26 26 24 23 23 24 25
31 37 34 37 34 30 27 26 30 28 26 24 23 22 19 17 16 16 17 18 20 21 22 23 23 24 24 26 24 25 25 25 27 29 27 26 25 25 26 26 27 27 27
25 28 32 35 32 33 29 30 30 30 28 25 22 20 19 18 18 18 19 21 21 22 24 24 24 26 25 26 24 24 25 26 28 29 26 27 26 26 26 26 28 30 31
23 21 22 27 34 31 19 25 26 29 29 26 24 21 19 20 20 21 22 22 23 24 24 24 25 27 26 25 25 25 26 28 29 30 28 26 28 28 31 30 31 32 33
Wind_Direction
189 192 181 168 162 159 153 146 133 124 112 103 93 90 94 100 104 105 103 98 91 85 76 63 53 41 34 27 18 15 11 4 359 355 353 351 351 354 356 356 358 353 358
201 199 188 184 174 167 163 151 142 129 113 96 84 86 96 103 106 105 100 95 90 80 67 52 38 28 18 14 7 360 357 352 347 343 346 342 343 347 347 349 351 350 347
203 201 195 190 188 178 167 161 149 135 115 99 90 89 94 100 105 104 99 92 80 65 51 36 23 15 9 2 359 350 349 351 352 356 353 357 348 356 350 350 357 348 343
209 202 199 194 189 182 176 166 152 137 123 106 96 92 96 100 104 101 94 86 69 51 37 28 13 2 1 4 5 7 17 26 17 11 3 349 13 356 353 347 349 344 347
212 204 199 196 194 184 182 170 160 149 136 121 108 100 99 101 103 95 86 74 65 51 31 14 10 9 12 16 21 29 32 26 15 3 359 342 4 351 351 353 348 334 330
218 205 198 197 198 186 185 177 170 164 151 128 110 103 97 92 89 89 81 72 60 48 28 15 12 25 24 20 23 34 31 23 9 0 360 356 338 345 347 344 343 335 325
226 204 200 199 196 192 188 185 178 175 165 146 129 117 106 101 91 85 81 74 60 40 26 21 22 27 35 30 34 43 22 357 359 6 3 2 354 344 346 343 340 335 329
203 208 203 202 196 197 196 192 186 183 175 165 153 132 113 106 101 90 78 62 45 31 29 28 29 34 35 33 31 15 360 348 358 359 4 7 1 347 333 331 333 336 338
210 211 207 203 201 200 201 200 193 190 181 172 161 140 120 100 101 90 80 59 29 28 31 37 36 28 27 24 14 7 359 353 6 1 7 3 347 333 334 329 328 329 329
211 206 210 203 207 205 205 204 200 196 187 175 169 155 126 134 103 99 79 49 27 22 33 36 30 23 19 21 12 7 359 3 7 1 3 359 353 344 336 327 323 321 320
213 208 207 205 207 207 208 204 203 195 199 181 177 166 129 144 81 79 74 47 24 24 26 31 23 10 11 13 8 2 4 4 10 9 3 3 354 353 347 339 334 327 320
212 211 207 206 206 207 207 203 203 196 204 195 181 171 154 132 79 59 62 31 6 14 22 20 18 8 3 357 360 358 356 3 4 6 4 1 356 352 351 348 342 338 330
215 218 211 209 207 207 205 201 202 200 202 207 191 185 180 143 95 30 43 4 357 351 2 5 0 350 351 355 351 353 354 357 354 357 0 357 353 350 350 348 344 342 337
219 223 215 212 206 209 207 203 201 200 204 213 203 197 195 164 210 314 351 326 327 331 335 346 341 345 347 345 343 345 346 347 353 351 350 349 346 344 342 343 341 340 340
223 221 219 213 209 209 208 206 204 203 206 212 212 215 219 198 156 275 286 297 308 316 323 332 332 334 333 333 333 334 336 337 342 340 342 340 340 338 337 338 338 339 337
219 223 221 216 211 211 210 209 206 202 206 211 213 216 223 218 175 264 283 296 301 306 311 316 317 320 321 320 321 323 326 328 330 334 333 333 334 334 334 334 334 334 331
224 231 225 215 215 216 214 212 212 212 208 211 215 217 222 223 210 252 279 292 298 301 305 308 311 312 312 314 316 315 316 320 322 324 324 327 328 329 328 328 328 327 326
232 234 216 204 221 218 215 215 216 216 216 215 219 220 224 227 223 244 267 281 292 300 304 306 309 310 310 309 309 310 312 313 315 317 319 321 322 324 322 323 323 323 321
221 228 199 205 215 211 222 216 219 221 222 222 227 229 228 234 237 245 263 276 286 295 300 302 303 304 304 305 305 305 305 307 311 313 317 317 317 316 317 317 318 317 316
224 225 235 229 198 213 226 219 217 227 227 226 230 232 234 238 241 251 261 277 289 295 298 300 300 302 301 302 303 303 303 305 307 310 310 310 312 312 313 313 314 314 313
227 223 227 203 211 218 224 235 226 230 231 234 233 237 238 242 248 256 266 279 287 293 294 295 297 299 302 304 304 304 303 303 307 309 309 309 310 311 313 314 313 311 311
219 229 214 215 215 219 211 226 225 225 225 230 234 238 242 245 250 258 270 280 286 288 291 293 296 298 302 304 304 303 302 301 304 305 306 307 308 309 310 311 311 313 314
217 230 225 201 215 212 218 216 231 227 229 231 235 239 243 246 254 262 271 278 284 288 293 297 298 301 303 305 304 304 303 303 302 304 307 308 310 310 311 311 309 311 311
227 226 237 225 217 211 222 216 230 227 228 229 233 238 245 251 257 265 273 279 283 287 290 293 297 301 305 306 303 302 300 302 304 307 308 305 307 307 309 310 309 307 303
230 235 236 230 239 227 230 227 227 225 227 228 235 242 246 252 257 266 271 276 282 288 291 294 297 299 301 299 297 296 296 300 302 303 304 305 304 302 299 301 302 302 302
220 227 242 232 238 251 259 231 239 227 230 230 229 233 243 253 258 266 270 275 280 284 287 291 292 295 294 293 295 295 296 299 300 300 299 298 299 301 303 303 300 299 300
Height
3154 3155 3157 3158 3159 3160 3161 3161 3162 3163 3164 3164 3164 3165 3165 3166 3166 3167 3168 3168 3169 3169 3169 3170 3170 3170 3170 3169 3169 3168 3168 3167 3167 3166 3166 3166 3166 3165 3164 3165 3165 3165 3164
3152 3154 3155 3157 3158 3159 3160 3161 3162 3163 3164 3165 3165 3166 3166 3167 3167 3168 3169 3169 3169 3170 3170 3171 3171 3171 3171 3170 3169 3169 3168 3167 3167 3167 3166 3166 3165 3165 3164 3164 3164 3164 3164
3150 3152 3154 3156 3158 3159 3160 3161 3162 3163 3164 3165 3166 3166 3167 3167 3168 3169 3170 3170 3171 3171 3171 3171 3171 3170 3170 3170 3169 3168 3168 3167 3166 3166 3166 3165 3165 3164 3164 3164 3163 3163 3163
3148 3151 3153 3155 3157 3158 3160 3161 3162 3163 3164 3165 3165 3166 3167 3168 3169 3169 3170 3171 3171 3172 3172 3171 3171 3171 3170 3169 3169 3168 3167 3166 3166 3165 3165 3164 3164 3163 3163 3163 3163 3162 3162
3147 3149 3152 3154 3156 3158 3159 3161 3162 3163 3164 3165 3165 3166 3168 3169 3169 3170 3170 3171 3171 3171 3172 3172 3171 3170 3170 3169 3168 3168 3168 3167 3166 3165 3164 3163 3163 3163 3163 3162 3162 3162 3161
3146 3148 3150 3153 3155 3157 3158 3160 3162 3163 3164 3165 3166 3166 3167 3169 3170 3170 3171 3171 3172 3171 3172 3171 3171 3170 3170 3169 3168 3168 3167 3167 3166 3165 3164 3164 3163 3162 3162 3162 3161 3161 3160
3145 3146 3149 3151 3154 3156 3158 3159 3161 3163 3164 3165 3166 3167 3168 3168 3170 3170 3171 3171 3171 3172 3172 3171 3171 3170 3170 3169 3168 3168 3168 3167 3167 3166 3164 3163 3163 3162 3162 3161 3160 3160 3159
3144 3145 3147 3150 3153 3155 3157 3159 3160 3162 3164 3165 3166 3167 3168 3169 3169 3170 3170 3171 3171 3172 3172 3171 3171 3171 3170 3169 3169 3168 3167 3166 3166 3165 3164 3163 3162 3161 3161 3160 3159 3158 3157
3141 3144 3145 3149 3151 3154 3156 3158 3160 3162 3163 3165 3166 3167 3168 3169 3170 3170 3170 3171 3172 3172 3172 3171 3171 3171 3170 3169 3169 3168 3167 3166 3165 3164 3163 3162 3161 3160 3159 3159 3158 3157 3156
3139 3142 3144 3147 3150 3152 3155 3157 3159 3161 3163 3164 3166 3167 3168 3169 3169 3170 3170 3171 3171 3172 3171 3171 3171 3171 3170 3169 3169 3168 3167 3165 3165 3163 3162 3161 3160 3159 3158 3157 3157 3156 3155
3136 3139 3142 3145 3148 3151 3153 3155 3158 3160 3163 3163 3165 3166 3167 3168 3169 3170 3170 3170 3171 3171 3171 3171 3171 3171 3170 3169 3169 3168 3166 3166 3164 3163 3162 3161 3160 3158 3157 3156 3155 3154 3153
3133 3136 3139 3142 3145 3149 3151 3154 3157 3159 3162 3163 3164 3165 3166 3167 3168 3169 3169 3170 3170 3171 3170 3170 3170 3170 3170 3169 3168 3167 3166 3165 3163 3162 3160 3160 3159 3157 3156 3154 3153 3151 3150
3130 3134 3137 3139 3143 3146 3149 3152 3155 3157 3160 3163 3163 3164 3165 3166 3167 3168 3168 3169 3170 3170 3170 3169 3169 3170 3169 3168 3167 3166 3164 3164 3163 3161 3159 3158 3157 3156 3154 3153 3151 3150 3148
3128 3132 3134 3138 3142 3144 3148 3150 3152 3155 3158 3161 3162 3163 3164 3164 3166 3167 3167 3168 3168 3169 3169 3168 3168 3167 3167 3166 3166 3165 3163 3162 3162 3160 3158 3157 3155 3154 3152 3150 3148 3147 3146
3125 3128 3130 3135 3138 3142 3145 3148 3151 3152 3156 3159 3160 3162 3163 3163 3162 3166 3167 3167 3167 3167 3167 3166 3166 3165 3165 3164 3164 3163 3162 3161 3160 3158 3157 3155 3154 3152 3151 3149 3147 3145 3144
3120 3123 3128 3132 3136 3139 3143 3146 3148 3150 3153 3156 3158 3159 3162 3162 3161 3164 3165 3166 3166 3166 3165 3164 3164 3164 3163 3163 3162 3161 3160 3159 3158 3157 3155 3153 3152 3150 3149 3147 3145 3143 3141
3117 3120 3122 3127 3134 3137 3141 3144 3147 3149 3151 3154 3156 3157 3159 3160 3159 3162 3163 3164 3164 3163 3163 3163 3162 3162 3161 3160 3159 3158 3157 3156 3155 3153 3153 3150 3149 3148 3146 3144 3142 3140 3138
3114 3117 3114 3118 3129 3135 3138 3142 3145 3147 3150 3152 3154 3155 3156 3157 3158 3159 3161 3161 3161 3161 3161 3161 3160 3159 3158 3158 3157 3156 3155 3153 3152 3150 3149 3148 3147 3145 3143 3141 3139 3137 3135
3110 3110 3107 3107 3126 3131 3136 3139 3141 3145 3148 3150 3152 3154 3154 3155 3156 3157 3158 3159 3159 3159 3158 3158 3158 3157 3156 3154 3154 3153 3151 3150 3148 3147 3146 3144 3142 3141 3140 3137 3135 3133 3132
3106 3108 3108 3114 3120 3126 3131 3133 3136 3142 3145 3147 3150 3151 3152 3153 3154 3155 3155 3156 3156 3156 3156 3156 3155 3153 3152 3151 3150 3149 3148 3146 3145 3143 3141 3140 3139 3137 3135 3133 3132 3129 3127
3102 3106 3108 3109 3115 3119 3125 3129 3134 3138 3142 3145 3146 3148 3149 3150 3151 3151 3152 3153 3153 3153 3153 3152 3151 3150 3148 3147 3146 3145 3144 3142 3141 3140 3138 3136 3135 3134 3131 3128 3126 3125 3123
3097 3100 3098 3110 3115 3115 3119 3124 3130 3134 3137 3140 3142 3144 3146 3146 3147 3148 3148 3149 3149 3149 3149 3147 3146 3145 3144 3142 3141 3140 3139 3140 3137 3136 3134 3132 3129 3127 3125 3123 3121 3120 3117
3092 3096 3100 3088 3110 3112 3111 3118 3124 3129 3132 3135 3138 3140 3141 3142 3143 3144 3144 3145 3145 3144 3144 3143 3142 3141 3140 3138 3136 3136 3133 3132 3131 3130 3129 3125 3123 3121 3119 3118 3117 3114 3112
3090 3093 3098 3103 3105 3104 3106 3112 3117 3123 3126 3130 3132 3134 3136 3138 3139 3140 3140 3140 3139 3139 3139 3138 3137 3136 3133 3133 3132 3129 3128 3127 3125 3123 3123 3120 3118 3115 3113 3112 3109 3108 3107
3086 3089 3093 3096 3097 3086 3101 3106 3111 3116 3119 3122 3126 3129 3132 3134 3134 3135 3134 3134 3134 3133 3133 3132 3132 3130 3128 3126 3126 3125 3123 3121 3119 3117 3116 3112 3112 3110 3109 3107 3104 3101 3098
3083 3088 3090 3095 3099 3098 3096 3096 3106 3110 3113 3117 3119 3122 3126 3129 3130 3129 3129 3128 3127 3127 3126 3125 3125 3124 3123 3121 3118 3117 3116 3115 3113 3111 3109 3108 3105 3104 3101 3100 3097 3095 3092